| time (UTC) | temp F | wind direction | speed MPH | gust MPH | rain 1hr in | rain 24hr in | rain mn in | humidity % | barometer mb |
| 20260505003010 | 71 | 203 | 0.0 | 0.0 | 0.00 | 0.00 | 0.00 | 39 | 983.3 |
| 20260505002509 | 71 | 248 | 0.0 | 0.0 | 0.00 | 0.00 | 0.00 | 39 | 983.3 |
| 20260505002352 | 71 | 180 | 0.0 | 0.0 | 0.00 | 0.00 | 0.00 | 38 | 983.4 |
| 20260505001509 | 71 | 248 | 0.0 | 0.0 | 0.00 | 0.00 | 0.00 | 38 | 983.4 |
| 20260505001009 | 72 | 203 | 0.0 | 0.0 | 0.00 | 0.00 | 0.00 | 38 | 983.4 |
| 20260505000850 | 72 | 225 | 0.0 | 0.0 | 0.00 | 0.00 | 0.00 | 38 | 983.4 |
| 20260504235509 | 73 | 248 | 0.0 | 0.0 | 0.00 | 0.00 | 0.00 | 36 | 983.4 |
| 20260504235352 | 73 | 248 | 0.0 | 0.0 | 0.00 | 0.00 | 0.00 | 37 | 983.4 |
| 20260504234508 | 73 | 225 | 0.0 | 0.0 | 0.00 | 0.00 | 0.00 | 37 | 983.4 |
| 20260504233852 | 74 | 248 | 0.0 | 0.0 | 0.00 | 0.00 | 0.00 | 36 | 983.7 |
| 20260504233508 | 74 | 158 | 0.0 | 0.0 | 0.00 | 0.00 | 0.00 | 36 | 983.7 |
| 20260504233010 | 74 | 248 | 0.0 | 0.0 | 0.00 | 0.00 | 0.00 | 36 | 983.7 |
| 20260504232510 | 74 | 270 | 0.0 | 0.0 | 0.00 | 0.00 | 0.00 | 37 | 983.8 |
| 20260504232351 | 74 | 225 | 0.0 | 0.0 | 0.00 | 0.00 | 0.00 | 37 | 983.8 |
| 20260504232010 | 74 | 225 | 0.0 | 0.0 | 0.00 | 0.00 | 0.00 | 36 | 983.8 |
| 20260504231010 | 74 | 225 | 0.0 | 0.0 | 0.00 | 0.00 | 0.00 | 37 | 984.0 |
| 20260504230852 | 74 | 270 | 0.0 | 0.0 | 0.00 | 0.00 | 0.00 | 37 | 984.0 |
| 20260504230510 | 74 | 248 | 0.0 | 0.0 | 0.00 | 0.18 | 0.00 | 37 | 984.0 |
| 20260504230011 | 74 | 248 | 0.0 | 0.0 | 0.00 | 0.18 | 0.00 | 37 | 984.2 |
| 20260504225508 | 75 | 270 | 0.0 | 0.0 | 0.00 | 0.18 | 0.00 | 37 | 984.2 |
| 20260504225352 | 75 | 248 | 0.0 | 0.0 | 0.00 | 0.18 | 0.00 | 37 | 984.4 |
| 20260504225009 | 75 | 270 | 0.0 | 0.0 | 0.00 | 0.18 | 0.00 | 37 | 984.4 |
| 20260504224008 | 76 | 248 | 0.0 | 0.0 | 0.00 | 0.18 | 0.00 | 36 | 984.4 |
| 20260504223851 | 76 | 225 | 0.0 | 0.0 | 0.00 | 0.18 | 0.00 | 36 | 984.4 |
| 20260504223509 | 76 | 225 | 0.0 | 0.0 | 0.00 | 0.18 | 0.00 | 34 | 984.4 |
| 20260504223009 | 76 | 248 | 0.0 | 0.0 | 0.00 | 0.18 | 0.00 | 34 | 984.4 |
| 20260504222509 | 76 | 225 | 0.0 | 0.0 | 0.00 | 0.18 | 0.00 | 34 | 984.4 |
| 20260504222352 | 76 | 270 | 0.0 | 0.0 | 0.00 | 0.18 | 0.00 | 34 | 984.6 |
| 20260504221509 | 76 | 225 | 0.0 | 0.0 | 0.00 | 0.18 | 0.00 | 33 | 984.7 |
| 20260504221009 | 77 | 203 | 0.0 | 0.0 | 0.00 | 0.18 | 0.00 | 34 | 984.5 |
| 20260504220850 | 77 | 180 | 0.0 | 0.0 | 0.00 | 0.18 | 0.00 | 34 | 984.6 |
| 20260504220509 | 77 | 158 | 0.0 | 0.0 | 0.00 | 0.18 | 0.00 | 34 | 984.6 |
| 20260504220010 | 77 | 158 | 0.0 | 0.0 | 0.00 | 0.18 | 0.00 | 33 | 984.6 |
| 20260504215509 | 77 | 225 | 0.0 | 0.0 | 0.00 | 0.18 | 0.00 | 33 | 984.6 |
| 20260504215350 | 77 | 203 | 0.0 | 0.0 | 0.00 | 0.18 | 0.00 | 33 | 984.6 |
| 20260504215009 | 77 | 203 | 0.0 | 0.0 | 0.00 | 0.18 | 0.00 | 33 | 984.7 |
| 20260504214509 | 77 | 225 | 0.0 | 0.0 | 0.00 | 0.18 | 0.00 | 33 | 984.7 |
| 20260504214008 | 76 | 225 | 0.0 | 0.0 | 0.00 | 0.18 | 0.00 | 33 | 984.7 |
| 20260504213851 | 76 | 158 | 0.0 | 0.0 | 0.00 | 0.18 | 0.00 | 33 | 984.7 |
| 20260504212509 | 76 | 225 | 0.0 | 0.0 | 0.00 | 0.18 | 0.00 | 33 | 984.7 |
| 20260504212350 | 76 | 203 | 0.0 | 0.0 | 0.00 | 0.18 | 0.00 | 33 | 984.7 |
| 20260504211510 | 76 | 180 | 0.0 | 0.0 | 0.00 | 0.18 | 0.00 | 32 | 984.7 |
| 20260504211010 | 77 | 270 | 0.0 | 0.0 | 0.00 | 0.18 | 0.00 | 31 | 984.9 |
| 20260504210851 | 77 | 248 | 0.0 | 0.0 | 0.00 | 0.18 | 0.00 | 31 | 985.1 |
| 20260504210009 | 77 | 203 | 0.0 | 0.0 | 0.00 | 0.18 | 0.00 | 31 | 985.1 |
| 20260504205509 | 77 | 248 | 0.0 | 0.0 | 0.00 | 0.18 | 0.00 | 31 | 985.1 |
| 20260504205352 | 78 | 225 | 0.0 | 0.0 | 0.00 | 0.18 | 0.00 | 31 | 985.1 |
| 20260504204510 | 78 | 248 | 0.0 | 0.0 | 0.00 | 0.18 | 0.00 | 31 | 985.1 |
| 20260504204010 | 78 | 180 | 0.0 | 0.0 | 0.00 | 0.18 | 0.00 | 31 | 985.1 |
| 20260504203850 | 78 | 225 | 0.0 | 0.0 | 0.00 | 0.18 | 0.00 | 31 | 985.1 |
| 20260504203009 | 78 | 225 | 0.0 | 0.0 | 0.00 | 0.18 | 0.00 | 31 | 985.1 |
| 20260504202351 | 77 | 248 | 0.0 | 0.0 | 0.00 | 0.18 | 0.00 | 32 | 985.1 |
| 20260504202010 | 77 | 270 | 0.0 | 0.0 | 0.00 | 0.18 | 0.00 | 31 | 985.1 |
| 20260504201509 | 77 | 225 | 0.0 | 0.0 | 0.00 | 0.18 | 0.00 | 31 | 985.1 |
| 20260504201009 | 77 | 225 | 0.0 | 0.0 | 0.00 | 0.18 | 0.00 | 30 | 985.1 |
| 20260504200852 | 77 | 180 | 0.0 | 0.0 | 0.00 | 0.18 | 0.00 | 31 | 985.1 |
| 20260504200509 | 77 | 270 | 0.0 | 0.0 | 0.00 | 0.18 | 0.00 | 31 | 985.1 |
| 20260504195508 | 77 | 270 | 0.0 | 0.0 | 0.00 | 0.18 | 0.00 | 31 | 985.1 |
| 20260504195351 | 76 | 270 | 0.0 | 0.0 | 0.00 | 0.18 | 0.00 | 31 | 985.1 |
| 20260504195010 | 77 | 270 | 0.0 | 0.0 | 0.00 | 0.18 | 0.00 | 30 | 985.4 |
| 20260504194009 | 77 | 180 | 0.0 | 0.0 | 0.00 | 0.18 | 0.00 | 31 | 985.3 |
| 20260504193852 | 77 | 203 | 0.0 | 0.0 | 0.00 | 0.18 | 0.00 | 31 | 985.1 |
| 20260504193508 | 77 | 203 | 0.0 | 0.0 | 0.00 | 0.18 | 0.00 | 30 | 985.4 |
| 20260504193010 | 77 | 180 | 0.0 | 0.0 | 0.00 | 0.18 | 0.00 | 31 | 985.4 |
| 20260504192510 | 77 | 338 | 0.0 | 0.0 | 0.00 | 0.18 | 0.00 | 32 | 985.4 |
| 20260504192351 | 77 | 293 | 0.0 | 0.0 | 0.00 | 0.18 | 0.00 | 31 | 985.4 |
| 20260504191510 | 78 | 248 | 0.0 | 0.0 | 0.00 | 0.18 | 0.00 | 32 | 985.4 |
| 20260504190851 | 77 | 225 | 0.0 | 0.0 | 0.00 | 0.18 | 0.00 | 31 | 985.6 |
| 20260504190511 | 77 | 225 | 0.0 | 0.0 | 0.00 | 0.18 | 0.00 | 32 | 985.7 |
| 20260504190009 | 77 | 113 | 0.0 | 0.0 | 0.00 | 0.18 | 0.00 | 34 | 985.4 |
| 20260504185509 | 77 | 203 | 0.0 | 0.0 | 0.00 | 0.18 | 0.00 | 35 | 985.7 |
| 20260504185352 | 77 | 248 | 0.0 | 0.0 | 0.00 | 0.18 | 0.00 | 35 | 985.7 |
| 20260504185009 | 77 | 158 | 0.0 | 0.0 | 0.00 | 0.18 | 0.00 | 33 | 985.7 |
| 20260504184510 | 77 | 225 | 0.0 | 0.0 | 0.00 | 0.18 | 0.00 | 32 | 986.0 |
| 20260504184009 | 77 | 270 | 0.0 | 0.0 | 0.00 | 0.18 | 0.00 | 32 | 985.7 |
| 20260504183852 | 77 | 270 | 0.0 | 0.0 | 0.00 | 0.18 | 0.00 | 32 | 985.7 |
| 20260504183508 | 77 | 270 | 0.0 | 0.0 | 0.00 | 0.18 | 0.00 | 33 | 985.7 |
| 20260504183009 | 76 | 225 | 0.0 | 0.0 | 0.00 | 0.18 | 0.00 | 33 | 985.7 |
| 20260504182510 | 76 | 158 | 0.0 | 0.0 | 0.00 | 0.18 | 0.00 | 33 | 986.1 |
| 20260504182350 | 76 | 248 | 0.0 | 0.0 | 0.00 | 0.18 | 0.00 | 34 | 985.8 |
| 20260504182010 | 76 | 270 | 0.0 | 0.0 | 0.00 | 0.18 | 0.00 | 34 | 986.0 |
| 20260504181509 | 76 | 203 | 0.0 | 0.0 | 0.00 | 0.18 | 0.00 | 34 | 986.1 |
| 20260504181009 | 76 | 248 | 0.0 | 0.0 | 0.00 | 0.18 | 0.00 | 35 | 985.9 |
| 20260504180851 | 76 | 270 | 0.0 | 0.0 | 0.00 | 0.18 | 0.00 | 36 | 986.1 |
| 20260504180509 | 76 | 180 | 0.0 | 0.0 | 0.00 | 0.18 | 0.00 | 35 | 986.1 |
| 20260504180009 | 76 | 270 | 0.0 | 0.0 | 0.00 | 0.18 | 0.00 | 37 | 986.1 |
| 20260504175351 | 76 | 225 | 0.0 | 0.0 | 0.00 | 0.18 | 0.00 | 38 | 986.3 |
| 20260504175010 | 76 | 225 | 0.0 | 0.0 | 0.00 | 0.18 | 0.00 | 38 | 986.4 |
| 20260504174509 | 76 | 270 | 0.0 | 0.0 | 0.00 | 0.18 | 0.00 | 39 | 986.4 |
| 20260504174009 | 76 | 158 | 0.0 | 0.0 | 0.00 | 0.18 | 0.00 | 39 | 986.4 |
| 20260504173852 | 76 | 248 | 0.0 | 0.0 | 0.00 | 0.18 | 0.00 | 39 | 986.5 |
| 20260504173509 | 75 | 158 | 0.0 | 0.0 | 0.00 | 0.18 | 0.00 | 39 | 986.7 |
| 20260504173009 | 75 | 180 | 0.0 | 0.0 | 0.00 | 0.18 | 0.00 | 40 | 986.7 |
| 20260504172352 | 75 | 248 | 0.0 | 0.0 | 0.00 | 0.18 | 0.00 | 40 | 986.7 |
| 20260504172009 | 75 | 180 | 0.0 | 0.0 | 0.00 | 0.18 | 0.00 | 39 | 986.7 |
| 20260504171510 | 75 | 270 | 0.0 | 0.0 | 0.00 | 0.18 | 0.00 | 40 | 986.7 |
| 20260504171010 | 75 | 225 | 0.0 | 0.0 | 0.00 | 0.18 | 0.00 | 41 | 986.7 |
| 20260504170851 | 75 | 180 | 0.0 | 0.0 | 0.00 | 0.18 | 0.00 | 41 | 986.7 |
| 20260504170510 | 74 | 225 | 0.0 | 0.0 | 0.00 | 0.18 | 0.00 | 41 | 986.7 |
| 20260504151009 | 63 | 180 | 0.0 | 0.0 | 0.00 | 0.18 | 0.00 | 62 | 988.8 |
| 20260504150851 | 63 | 180 | 0.0 | 0.0 | 0.00 | 0.18 | 0.00 | 63 | 988.8 |
| 20260504150509 | 63 | 158 | 0.0 | 0.0 | 0.00 | 0.18 | 0.00 | 63 | 988.8 |
| 20260504140852 | 59 | 180 | 0.0 | 0.0 | 0.00 | 0.18 | 0.00 | 68 | 989.1 |
| 20260504140509 | 59 | 203 | 0.0 | 0.0 | 0.00 | 0.18 | 0.00 | 69 | 989.1 |
| 20260504130510 | 57 | 248 | 0.0 | 0.0 | 0.00 | 0.18 | 0.00 | 71 | 989.5 |
| 20260504110509 | 46 | 203 | 0.0 | 0.0 | 0.00 | 0.18 | 0.00 | 79 | 989.5 |
| 20260504100509 | 47 | 203 | 0.0 | 0.0 | 0.00 | 0.18 | 0.00 | 77 | 989.6 |
| 20260504081509 | 49 | 158 | 0.0 | 0.0 | 0.00 | 0.18 | 0.00 | 74 | 990.1 |
| 20260504081009 | 49 | 180 | 0.0 | 0.0 | 0.00 | 0.18 | 0.00 | 74 | 990.1 |
| 20260504080853 | 49 | 180 | 0.0 | 0.0 | 0.00 | 0.18 | 0.00 | 74 | 990.1 |
| 20260504050010 | 50 | 270 | 0.0 | 0.0 | 0.00 | 0.18 | 0.00 | 69 | 992.5 |
| 20260504045510 | 50 | 293 | 0.0 | 0.0 | 0.00 | 0.18 | 0.00 | 69 | 992.8 |
| 20260504045351 | 50 | 293 | 0.0 | 0.0 | 0.00 | 0.18 | 0.00 | 69 | 992.9 |
| 20260504045010 | 50 | 293 | 0.0 | 0.0 | 0.00 | 0.18 | 0.00 | 69 | 993.2 |
| 20260504044509 | 50 | 293 | 0.0 | 0.0 | 0.00 | 0.18 | 0.00 | 69 | 993.3 |
| 20260504044010 | 50 | 293 | 0.0 | 0.0 | 0.00 | 0.18 | 0.00 | 69 | 993.5 |
| 20260504043851 | 50 | 338 | 0.0 | 0.0 | 0.00 | 0.18 | 0.00 | 69 | 993.5 |
| 20260504043510 | 50 | 315 | 0.0 | 0.0 | 0.00 | 0.18 | 0.00 | 69 | 993.0 |
| 20260504043009 | 50 | 158 | 0.0 | 0.0 | 0.00 | 0.18 | 0.00 | 69 | 992.8 |
| 20260504042352 | 50 | 180 | 0.0 | 0.0 | 0.00 | 0.18 | 0.00 | 69 | 992.5 |
| 20260504042010 | 50 | 180 | 0.0 | 0.0 | 0.00 | 0.18 | 0.00 | 68 | 992.5 |
| 20260504041509 | 50 | 180 | 0.0 | 0.0 | 0.00 | 0.18 | 0.00 | 69 | 992.5 |
| 20260504041009 | 50 | 203 | 0.0 | 0.0 | 0.00 | 0.18 | 0.00 | 69 | 992.5 |
| 20260504040852 | 50 | 180 | 0.0 | 0.0 | 0.00 | 0.18 | 0.00 | 69 | 992.5 |
| 20260504040510 | 50 | 158 | 0.0 | 0.0 | 0.00 | 0.18 | 0.00 | 68 | 992.5 |
| 20260504040011 | 50 | 203 | 0.0 | 0.0 | 0.00 | 0.18 | 0.18 | 68 | 992.8 |
| 20260504035351 | 50 | 180 | 0.0 | 0.0 | 0.00 | 0.18 | 0.18 | 68 | 992.8 |
| 20260504035010 | 50 | 180 | 0.0 | 0.0 | 0.00 | 0.18 | 0.18 | 68 | 992.8 |
| 20260504034509 | 51 | 180 | 0.0 | 0.0 | 0.00 | 0.18 | 0.18 | 68 | 992.8 |
| 20260504033852 | 51 | 180 | 0.0 | 0.0 | 0.00 | 0.18 | 0.18 | 67 | 992.8 |
| 20260504033511 | 51 | 180 | 0.0 | 0.0 | 0.00 | 0.18 | 0.18 | 67 | 992.8 |
| 20260504033010 | 51 | 180 | 0.0 | 0.0 | 0.00 | 0.18 | 0.18 | 67 | 992.8 |
| 20260504032351 | 51 | 180 | 0.0 | 0.0 | 0.00 | 0.18 | 0.18 | 66 | 993.1 |
| 20260504032010 | 51 | 180 | 0.0 | 0.0 | 0.00 | 0.18 | 0.18 | 66 | 993.0 |
| 20260504031509 | 51 | 180 | 0.0 | 0.0 | 0.00 | 0.18 | 0.18 | 66 | 993.1 |
| 20260504031011 | 51 | 203 | 0.0 | 0.0 | 0.00 | 0.18 | 0.18 | 66 | 993.2 |
| 20260504030852 | 51 | 203 | 0.0 | 0.0 | 0.00 | 0.18 | 0.18 | 66 | 993.2 |
| 20260504030511 | 51 | 180 | 0.0 | 0.0 | 0.00 | 0.18 | 0.18 | 66 | 993.2 |
| 20260504025509 | 52 | 158 | 0.0 | 0.0 | 0.00 | 0.18 | 0.18 | 65 | 993.2 |
| 20260504025352 | 52 | 180 | 0.0 | 0.0 | 0.00 | 0.18 | 0.18 | 65 | 993.2 |
| 20260504025009 | 52 | 180 | 0.0 | 0.0 | 0.00 | 0.18 | 0.18 | 65 | 993.2 |
| 20260504024509 | 52 | 180 | 0.0 | 0.0 | 0.00 | 0.18 | 0.18 | 64 | 993.2 |
| 20260504024009 | 52 | 180 | 0.0 | 0.0 | 0.00 | 0.18 | 0.18 | 64 | 993.2 |
| 20260504023852 | 52 | 180 | 0.0 | 0.0 | 0.00 | 0.18 | 0.18 | 64 | 993.2 |
| 20260504023509 | 52 | 180 | 0.0 | 0.0 | 0.00 | 0.18 | 0.18 | 64 | 993.2 |
| 20260504023010 | 52 | 180 | 0.0 | 0.0 | 0.00 | 0.18 | 0.18 | 63 | 993.2 |
| 20260504022352 | 52 | 158 | 0.0 | 0.0 | 0.00 | 0.18 | 0.18 | 63 | 993.2 |
| 20260504022009 | 53 | 225 | 0.0 | 0.0 | 0.00 | 0.18 | 0.18 | 63 | 993.2 |
| 20260504021511 | 53 | 158 | 0.0 | 0.0 | 0.00 | 0.18 | 0.18 | 63 | 993.2 |
| 20260504020851 | 53 | 203 | 0.0 | 0.0 | 0.00 | 0.18 | 0.18 | 63 | 993.2 |
| 20260504020509 | 53 | 180 | 0.0 | 0.0 | 0.00 | 0.18 | 0.18 | 63 | 993.2 |
| 20260504020009 | 53 | 248 | 0.0 | 0.0 | 0.00 | 0.18 | 0.18 | 62 | 993.2 |
| 20260504015510 | 53 | 180 | 0.0 | 0.0 | 0.00 | 0.18 | 0.18 | 62 | 993.2 |
| 20260504015351 | 53 | 225 | 0.0 | 0.0 | 0.00 | 0.18 | 0.18 | 62 | 993.2 |
| 20260504015010 | 53 | 225 | 0.0 | 0.0 | 0.00 | 0.18 | 0.18 | 62 | 993.2 |
| 20260504014509 | 53 | 180 | 0.0 | 0.0 | 0.00 | 0.18 | 0.18 | 62 | 993.2 |
| 20260504014009 | 53 | 180 | 0.0 | 0.0 | 0.00 | 0.18 | 0.18 | 61 | 993.2 |
| 20260504013852 | 53 | 203 | 0.0 | 0.0 | 0.00 | 0.18 | 0.18 | 61 | 993.2 |
| 20260504013009 | 54 | 158 | 0.0 | 0.0 | 0.00 | 0.18 | 0.18 | 61 | 993.2 |
| 20260504012353 | 54 | 135 | 0.0 | 0.0 | 0.00 | 0.18 | 0.18 | 60 | 993.4 |
| 20260504011509 | 54 | 203 | 0.0 | 0.0 | 0.00 | 0.18 | 0.18 | 60 | 993.3 |
| 20260504011010 | 54 | 248 | 0.0 | 0.0 | 0.00 | 0.18 | 0.18 | 59 | 993.5 |
| 20260504010851 | 54 | 225 | 0.0 | 0.0 | 0.00 | 0.18 | 0.18 | 59 | 993.5 |
| 20260504010510 | 54 | 225 | 0.0 | 0.0 | 0.00 | 0.18 | 0.18 | 59 | 993.5 |
| 20260504010011 | 55 | 180 | 0.0 | 0.0 | 0.00 | 0.18 | 0.18 | 59 | 993.4 |
| 20260504005353 | 55 | 158 | 0.0 | 0.0 | 0.00 | 0.18 | 0.18 | 59 | 993.4 |
| 20260504005009 | 55 | 203 | 0.0 | 0.0 | 0.00 | 0.18 | 0.18 | 58 | 993.4 |
| 20260504004509 | 55 | 180 | 0.0 | 0.0 | 0.00 | 0.18 | 0.18 | 58 | 993.5 |
| 20260504004009 | 55 | 203 | 0.0 | 0.0 | 0.00 | 0.18 | 0.18 | 58 | 993.5 |
| 20260504003852 | 56 | 248 | 0.0 | 0.0 | 0.00 | 0.18 | 0.18 | 58 | 993.5 |
| 20260504003511 | 56 | 203 | 0.0 | 0.0 | 0.00 | 0.18 | 0.18 | 58 | 993.5 |